| time (UTC) | temp F | wind direction | speed knots | gust knots | rain 1hr in | rain 24hr in | rain mn in | humidity % | barometer mb |
| 20260507124548 | 43 | 355 | 1.7 | 2.6 | 0.00 | 0.00 | 0.00 | 51 | 1021.8 |
| 20260507123050 | 41 | 355 | 2.6 | 3.5 | 0.00 | 0.00 | 0.00 | 53 | 1021.6 |
| 20260507121547 | 39 | 339 | 2.6 | 4.3 | 0.00 | 0.00 | 0.00 | 54 | 1021.6 |
| 20260507120047 | 39 | 333 | 3.5 | 4.3 | 0.00 | 0.00 | 0.00 | 53 | 1021.6 |
| 20260507114545 | 41 | 344 | 1.7 | 3.5 | 0.00 | 0.00 | 0.00 | 52 | 1021.7 |
| 20260507113038 | 43 | 22 | 1.7 | 2.6 | 0.00 | 0.00 | 0.00 | 49 | 1021.6 |
| 20260507111540 | 44 | 28 | 1.7 | 3.5 | 0.00 | 0.00 | 0.00 | 50 | 1021.6 |
| 20260507110034 | 44 | 77 | 2.6 | 4.3 | 0.00 | 0.00 | 0.00 | 51 | 1021.6 |
| 20260507104533 | 43 | 76 | 2.6 | 3.5 | 0.00 | 0.00 | 0.00 | 51 | 1021.5 |
| 20260507103033 | 43 | 63 | 2.6 | 4.3 | 0.00 | 0.00 | 0.00 | 51 | 1021.4 |
| 20260507101530 | 43 | 86 | 2.6 | 3.5 | 0.00 | 0.00 | 0.00 | 50 | 1021.2 |
| 20260507100032 | 44 | 87 | 2.6 | 5.2 | 0.00 | 0.00 | 0.00 | 49 | 1021.3 |
| 20260507094527 | 45 | 61 | 3.5 | 4.3 | 0.00 | 0.00 | 0.00 | 49 | 1021.3 |
| 20260507093034 | 44 | 40 | 3.5 | 4.3 | 0.00 | 0.00 | 0.00 | 49 | 1021.4 |
| 20260507091527 | 44 | 40 | 3.5 | 4.3 | 0.00 | 0.00 | 0.00 | 49 | 1021.6 |
| 20260507090024 | 44 | 40 | 2.6 | 4.3 | 0.00 | 0.00 | 0.00 | 49 | 1021.7 |
| 20260507084522 | 44 | 42 | 3.5 | 7.0 | 0.00 | 0.00 | 0.00 | 49 | 1021.8 |
| 20260507083026 | 44 | 11 | 4.3 | 7.0 | 0.00 | 0.00 | 0.00 | 48 | 1022.1 |
| 20260507081528 | 45 | 19 | 4.3 | 6.1 | 0.00 | 0.00 | 0.00 | 48 | 1022.2 |
| 20260507080019 | 45 | 14 | 5.2 | 7.8 | 0.00 | 0.00 | 0.00 | 47 | 1022.2 |
| 20260507074511 | 46 | 28 | 6.1 | 9.6 | 0.00 | 0.00 | 0.00 | 46 | 1022.2 |
| 20260507073008 | 47 | 31 | 7.8 | 10.4 | 0.00 | 0.00 | 0.00 | 45 | 1021.9 |
| 20260507071505 | 47 | 34 | 9.6 | 15.6 | 0.00 | 0.00 | 0.00 | 44 | 1021.5 |
| 20260507070001 | 48 | 55 | 13.9 | 19.1 | 0.00 | 0.00 | 0.00 | 44 | 1021.6 |
| 20260507064613 | 49 | 30 | 13.9 | 18.2 | 0.00 | 0.00 | 0.00 | 44 | 1021.4 |
| 20260507063056 | 49 | 61 | 12.2 | 18.2 | 0.00 | 0.00 | 0.00 | 44 | 1021.4 |
| 20260507061551 | 50 | 59 | 10.4 | 18.2 | 0.00 | 0.00 | 0.00 | 43 | 1021.2 |
| 20260507060050 | 50 | 61 | 12.2 | 20.0 | 0.00 | 0.00 | 0.00 | 42 | 1020.8 |
| 20260507054545 | 51 | 33 | 14.8 | 21.7 | 0.00 | 0.00 | 0.00 | 42 | 1020.6 |
| 20260507053040 | 52 | 64 | 14.8 | 20.9 | 0.00 | 0.00 | 0.00 | 42 | 1020.6 |
| 20260507051539 | 52 | 75 | 14.8 | 19.1 | 0.00 | 0.00 | 0.00 | 42 | 1020.6 |
| 20260507050039 | 52 | 78 | 13.0 | 19.1 | 0.00 | 0.00 | 0.00 | 42 | 1020.4 |
| 20260507044534 | 53 | 61 | 11.3 | 17.4 | 0.00 | 0.00 | 0.00 | 42 | 1020.6 |
| 20260507043030 | 53 | 57 | 12.2 | 17.4 | 0.00 | 0.00 | 0.00 | 41 | 1020.3 |
| 20260507041542 | 54 | 79 | 11.3 | 20.9 | 0.00 | 0.00 | 0.00 | 40 | 1020.1 |
| 20260507040024 | 55 | 71 | 11.3 | 18.2 | 0.00 | 0.00 | 0.00 | 39 | 1019.8 |
| 20260507034522 | 55 | 74 | 13.0 | 17.4 | 0.00 | 0.00 | 0.00 | 38 | 1019.5 |
| 20260507033021 | 56 | 70 | 9.6 | 16.5 | 0.00 | 0.00 | 0.00 | 38 | 1019.1 |
| 20260507031519 | 55 | 80 | 10.4 | 13.9 | 0.00 | 0.00 | 0.00 | 39 | 1018.7 |
| 20260507030019 | 55 | 78 | 7.8 | 10.4 | 0.00 | 0.00 | 0.00 | 38 | 1018.6 |
| 20260507024514 | 56 | 91 | 7.8 | 11.3 | 0.00 | 0.00 | 0.00 | 38 | 1017.9 |
| 20260507023013 | 56 | 94 | 8.7 | 11.3 | 0.00 | 0.00 | 0.00 | 37 | 1017.7 |
| 20260507021513 | 56 | 84 | 7.0 | 10.4 | 0.00 | 0.00 | 0.00 | 36 | 1017.3 |
| 20260507020013 | 57 | 80 | 8.7 | 13.0 | 0.00 | 0.00 | 0.00 | 35 | 1016.9 |
| 20260507014520 | 58 | 85 | 10.4 | 14.8 | 0.00 | 0.00 | 0.00 | 34 | 1016.7 |
| 20260507013029 | 59 | 90 | 9.6 | 18.2 | 0.00 | 0.00 | 0.00 | 33 | 1016.3 |
| 20260507011521 | 60 | 96 | 13.0 | 22.6 | 0.00 | 0.00 | 0.00 | 32 | 1016.1 |
| 20260507010010 | 61 | 91 | 15.6 | 20.0 | 0.00 | 0.00 | 0.00 | 31 | 1015.8 |
| 20260507004507 | 62 | 95 | 12.2 | 18.2 | 0.00 | 0.00 | 0.00 | 30 | 1015.7 |
| 20260507003006 | 62 | 86 | 13.9 | 22.6 | 0.00 | 0.00 | 0.00 | 30 | 1015.6 |
| 20260507001508 | 63 | 80 | 13.9 | 20.9 | 0.00 | 0.00 | 0.00 | 29 | 1015.5 |
| 20260507000019 | 63 | 91 | 15.6 | 21.7 | 0.00 | 0.00 | 0.00 | 29 | 1015.4 |
| 20260506234505 | 64 | 83 | 14.8 | 20.0 | 0.00 | 0.00 | 0.00 | 28 | 1015.3 |
| 20260506233005 | 64 | 76 | 13.9 | 19.1 | 0.00 | 0.00 | 0.00 | 28 | 1015.4 |
| 20260506231504 | 64 | 88 | 13.9 | 19.1 | 0.00 | 0.00 | 0.00 | 28 | 1015.2 |
| 20260506230004 | 64 | 117 | 13.0 | 20.9 | 0.00 | 0.00 | 0.00 | 27 | 1015.2 |
| 20260506224503 | 64 | 94 | 11.3 | 19.1 | 0.00 | 0.00 | 0.00 | 27 | 1015.0 |
| 20260506223004 | 64 | 78 | 12.2 | 20.9 | 0.00 | 0.00 | 0.00 | 27 | 1015.0 |
| 20260506221502 | 64 | 90 | 7.0 | 15.6 | 0.00 | 0.00 | 0.00 | 27 | 1015.3 |
| 20260506220100 | 64 | 61 | 10.4 | 17.4 | 0.00 | 0.00 | 0.00 | 28 | 1015.2 |
| 20260506214609 | 63 | 86 | 7.0 | 17.4 | 0.00 | 0.00 | 0.00 | 29 | 1015.1 |
| 20260506213057 | 64 | 49 | 11.3 | 17.4 | 0.00 | 0.00 | 0.00 | 29 | 1015.2 |
| 20260506211557 | 63 | 94 | 13.0 | 18.2 | 0.00 | 0.00 | 0.00 | 29 | 1015.6 |
| 20260506204554 | 63 | 28 | 9.6 | 14.8 | 0.00 | 0.00 | 0.00 | 30 | 1015.9 |
| 20260506203059 | 62 | 63 | 7.0 | 15.6 | 0.00 | 0.00 | 0.00 | 31 | 1016.0 |
| 20260506201551 | 61 | 47 | 6.1 | 13.0 | 0.00 | 0.00 | 0.00 | 32 | 1016.1 |
| 20260506200125 | 61 | 117 | 8.7 | 13.0 | 0.00 | 0.00 | 0.00 | 33 | 1016.0 |
| 20260506194547 | 61 | 59 | 7.8 | 13.9 | 0.00 | 0.00 | 0.00 | 33 | 1016.1 |
| 20260506193050 | 60 | 105 | 9.6 | 16.5 | 0.00 | 0.00 | 0.00 | 34 | 1016.0 |
| 20260506191547 | 60 | 69 | 11.3 | 16.5 | 0.00 | 0.00 | 0.00 | 35 | 1016.1 |
| 20260506190045 | 60 | 87 | 9.6 | 15.6 | 0.00 | 0.00 | 0.00 | 35 | 1016.3 |
| 20260506184541 | 58 | 67 | 7.8 | 17.4 | 0.00 | 0.00 | 0.00 | 37 | 1016.5 |
| 20260506183040 | 57 | 114 | 7.8 | 13.9 | 0.00 | 0.00 | 0.00 | 38 | 1016.6 |
| 20260506181539 | 57 | 84 | 10.4 | 14.8 | 0.00 | 0.00 | 0.00 | 39 | 1016.8 |
| 20260506180046 | 56 | 113 | 3.5 | 17.4 | 0.00 | 0.00 | 0.00 | 41 | 1017.0 |
| 20260506174533 | 55 | 74 | 9.6 | 15.6 | 0.00 | 0.00 | 0.00 | 42 | 1017.4 |
| 20260506173031 | 54 | 147 | 8.7 | 15.6 | 0.00 | 0.00 | 0.00 | 43 | 1017.3 |
| 20260506171545 | 53 | 111 | 5.2 | 15.6 | 0.00 | 0.00 | 0.00 | 43 | 1017.2 |
| 20260506170028 | 53 | 76 | 10.4 | 18.2 | 0.00 | 0.00 | 0.00 | 44 | 1017.5 |
| 20260506164526 | 53 | 78 | 11.3 | 17.4 | 0.00 | 0.00 | 0.00 | 45 | 1017.0 |
| 20260506163027 | 51 | 105 | 11.3 | 18.2 | 0.00 | 0.00 | 0.00 | 46 | 1016.9 |
| 20260506161534 | 50 | 89 | 13.9 | 19.1 | 0.00 | 0.00 | 0.00 | 48 | 1016.8 |
| 20260506160021 | 50 | 92 | 13.9 | 22.6 | 0.00 | 0.00 | 0.00 | 48 | 1016.8 |
| 20260506154518 | 49 | 108 | 13.0 | 23.5 | 0.00 | 0.00 | 0.00 | 47 | 1016.7 |
| 20260506153016 | 49 | 80 | 13.9 | 20.0 | 0.00 | 0.00 | 0.00 | 49 | 1016.8 |
| 20260506151515 | 48 | 85 | 14.8 | 19.1 | 0.00 | 0.00 | 0.00 | 49 | 1016.9 |
| 20260506150020 | 48 | 86 | 13.9 | 21.7 | 0.00 | 0.00 | 0.00 | 48 | 1016.7 |
| 20260506144514 | 47 | 41 | 15.6 | 21.7 | 0.00 | 0.00 | 0.00 | 50 | 1016.7 |
| 20260506143013 | 47 | 62 | 15.6 | 19.1 | 0.00 | 0.00 | 0.00 | 49 | 1016.7 |
| 20260506141511 | 46 | 74 | 12.2 | 18.2 | 0.00 | 0.00 | 0.00 | 50 | 1016.4 |
| 20260506140011 | 46 | 69 | 13.9 | 18.2 | 0.00 | 0.00 | 0.00 | 50 | 1016.1 |
| 20260506134520 | 45 | 81 | 14.8 | 21.7 | 0.00 | 0.00 | 0.00 | 51 | 1016.1 |
| 20260506133006 | 45 | 66 | 13.9 | 20.9 | 0.00 | 0.00 | 0.00 | 50 | 1015.6 |
| 20260506131504 | 44 | 71 | 15.6 | 21.7 | 0.00 | 0.00 | 0.00 | 50 | 1015.3 |
| 20260506130003 | 43 | 65 | 13.0 | 20.9 | 0.00 | 0.00 | 0.00 | 51 | 1015.2 |